Regional Weather Roundup
Issued by NWS

Home | Current Version | Previous Version | Graphics & Text | Print | Product List | Glossary On
Versions: 1 2 3 4 5 6 7 8 9 10 11 12 13 14 15 16 17 18 19 20 21 22 23 24 25 26 27 28 29 30 31 32 33 34 35 36 37 38 39 40 41 42 43 44 45 46 47 48 49 50
000
ASUS44 KMEG 011410
RWRTN
TENNESSEE HOURLY STATE WEATHER ROUNDUP
NATIONAL WEATHER SERVICE MEMPHIS TN
900 AM CDT MON JUN 01 2015

TNZ002-004-019-021-049-052-054-088>092-011500-
WEST TENNESSEE

CITY           SKY/WX    TMP DP  RH WIND       PRES   REMARKS
MEMPHIS INTL   CLOUDY    64  60  87 N8        30.11R FOG
NWS MEMPHIS      N/A     63 N/A N/A MISG        N/A
JACKSON        CLOUDY    63  60  90 N10       30.10R
DYERSBURG      CLOUDY    61  46  59 N6        30.12S
PARIS          CLOUDY    59  57  94 N8        30.11R
LEXINGTON      CLOUDY    61  61 100 N6        30.07R
$$

TNZ008-025-027-028-033-062-065-066-011500-
NORTH MIDDLE TENNESSEE

CITY           SKY/WX    TMP DP  RH WIND       PRES   REMARKS
NASHVILLE      LGT RAIN  65  63  93 NW3       30.07S FOG
CLARKSVILLE    LGT RAIN  62  61  96 NW6       30.08S FOG
SMYRNA         LGT RAIN  65  65 100 W3        30.07R FOG
COOKEVILLE     PTSUNNY   70  66  88 CALM      30.06S
CROSSVILLE     CLOUDY    68  63  84 S5        30.10S
$$

TNZ061-075-076-078-094-096-097-011500-
SOUTH MIDDLE TENNESSEE

CITY           SKY/WX    TMP DP  RH WIND       PRES   REMARKS
FAYETTEVILLE   PTSUNNY  N/A N/A N/A MISG      30.07S
TULLAHOMA      CLOUDY    68  64  88 S6        30.08S
WINCHESTER     PTSUNNY   72  64  78 VRB6      30.08S
MCMINNVILLE    MOSUNNY   72  72 100 SW5       30.07S
COLUMBIA       CLOUDY    70  66  88 SW3       30.05S
SHELBYVILLE    CLOUDY    72  68  88 S5        30.07S
$$

TNZ017-018-042-046-047-011500-
NORTHEAST TENNESSEE

CITY           SKY/WX    TMP DP  RH WIND       PRES   REMARKS
TRI CITIES     PTSUNNY   71  63  75 E5        30.09F
ELIZABETHTON   SUNNY     72  63  73 CALM      30.09F
$$

TNZ012-013-036-069-073-074-011500-
CENTRAL EAST TENNESSEE

CITY           SKY/WX    TMP DP  RH WIND       PRES   REMARKS
KNOXVILLE      PTSUNNY   70  64  81 CALM      30.07S
OAK RIDGE      PTSUNNY   72  66  81 VRB3      30.08S
GATLINBURG     PTSUNNY   64  64 100 NW3       30.08R
MORRISTOWN     PTSUNNY   72  64  78 CALM      30.10R
$$

TNZ083-085-099-011500-
SOUTHEAST TENNESSEE

CITY           SKY/WX    TMP DP  RH WIND       PRES   REMARKS
CHATTANOOGA    CLOUDY    70  66  87 S9        30.08F
$$

SKY/WX REPORTED AS FAIR MEANS FEW OR NO CLOUDS BELOW
12 THOUSAND FEET.




USA.gov is the U.S. government's official web portal to all federal, state and local government web resources and services.